Location: Mexico
(19.4000°N, 99.1500°W)
Time: 23:53:55
(UTC-06:00)

ISS - Pass Details

Date: 19 October 2017
Orbit: 400 x 408 km, 51.6° (Epoch: 24 October)

Event Time Altitude Azimuth Distance (km) Brightness Sun altitude
Rises 19:31:14 0° 296° (WNW) 2,314 1.0 -19.7°
Reaches altitude 10° 19:34:02 10° 270° (W) 1,455 0.2 -20.4°
Maximum altitude 19:35:51 14° 236° (SW) 1,231 -0.6 -20.8°
Drops below altitude 10° 19:37:40 10° 202° (SSW) 1,454 -0.7 -21.3°
Enters shadow 19:39:58 - 178° (S) 2,142 -0.1 -21.8°
